Weather Roundup
Issued by NWS

Home | Current Version | Previous Version | Graphics & Text | Print | Product List | Glossary Off
Versions: 1 2 3 4 5 6 7 8 9 10 11 12 13 14 15 16 17 18 19 20 21 22 23 24 25 26 27 28 29 30 31 32 33 34 35 36 37 38 39 40 41 42 43 44 45 46 47 48 49 50

699
NZUS93 KARX 041759
HRRWXR

CURRENT HOURLY OBSERVATIONS ACROSS
MUCH OF THE UPPER MISSISSIPPI VALLEY
NATIONAL WEATHER SERVICE LA CROSSE WI
100 PM CDT WED MAY 04 2016


...SOUTHEAST MINNESOTA...


CITY           SKY/WX    TMP DP  RH WIND       PRES   REMARKS
ROCHESTER      MOSUNNY   59  35  40 NW23G32   29.96S
ROCHESTER/MAYO FAIR      57  31  37 NW12G25   29.94F
WINONA         MOSUNNY   61  32  33 N12G26    29.92S
AUSTIN         SUNNY     57  34  41 N15G24    29.96S
ALBERT LEA     SUNNY     61  28  29 N15G24    29.97F
DODGE CENTER   MOSUNNY   59  30  33 N18G29    29.96S
PRESTON        MOSUNNY   56  34  42 NW18G25   29.93F
OWATONNA       SUNNY     61  30  31 N18G28    29.97F
FARIBAULT      NOT AVBL
$$

...ELSEWHERE IN MINNESOTA...


CITY           SKY/WX    TMP DP  RH WIND       PRES   REMARKS
MINNEAPOLIS    MOSUNNY   63  32  31 N15G24    29.97F
INTNL FALLS    SUNNY     55  18  23 NE12      30.03F
DULUTH         SUNNY     57  22  25 N17G25    29.96S
RED WING       SUNNY     61  28  29 N12G22    29.94F
REDWOOD FALLS  SUNNY     65  31  28 NW17G23   30.01F
MANKATO        SUNNY     61  34  36 N17       29.99F
WORTHINGTON    SUNNY     59  37  44 NW15G23   30.05F
FAIRMONT       SUNNY     61  34  36 N22       30.01F
$$

...SOUTHWEST WISCONSIN...


CITY           SKY/WX    TMP DP  RH WIND       PRES   REMARKS
LA CROSSE      MOSUNNY   63  34  33 N17G30    29.89F
PRAIRIE DU CHI SUNNY     59  32  35 N18G24    29.88F
LONE ROCK      NOT AVBL
PLATTEVILLE    MOSUNNY   58  35  42 N22G29    29.85S
FORT MC COY    MOSUNNY   58  33  38 N21G26    29.88F
MAUSTON-NEW LI CLEAR     57  29  34 N16G25    29.85S
VIROQUA        FAIR      56  34  43 N17G29    29.88S
WIS DELLS      SUNNY     57  28  32 N15G23    29.84S
$$

...ELSEWHERE IN WISCONSIN...


CITY           SKY/WX    TMP DP  RH WIND       PRES   REMARKS
MILWAUKEE      CLOUDY    45  36  70 NE12G21   29.80R
MADISON        PTSUNNY   54  35  48 N14G23    29.82S
GREEN BAY      CLOUDY    50  36  58 N17       29.82S
EAU CLAIRE     NOT AVBL
BLACK RVR FLS  FAIR      59  27  29 NW14G24   29.88S
MEDFORD        MOSUNNY   54  30  41 NW22G28   29.87F
WAUSAU         SUNNY     56  28  34 N14G24    29.84S
WIS RAPIDS     MOSUNNY   59  26  28 N17G29    29.86S
MARSHFIELD     SUNNY     58  27  30 N22G30    29.86S
RICE LAKE      SUNNY     58  25  28 N16G24    29.94F
$$

...NORTHEAST IOWA...


CITY           SKY/WX    TMP DP  RH WIND       PRES   REMARKS
WATERLOO       SUNNY     61  33  35 NW22G31   29.93F
DUBUQUE        PTSUNNY   57  38  48 N16G26    29.86F
DECORAH        MOSUNNY   57  34  41 NW18G26   29.90S
MASON CITY     SUNNY     61  32  33 N20G33    29.98F
CHARLES CITY   SUNNY     61  30  31 N24G31    29.95F
OELWEIN        MOSUNNY   59  32  36 N21G32    29.93S
$$

...ELSEWHERE IN IOWA...


CITY           SKY/WX    TMP DP  RH WIND       PRES   REMARKS
DES MOINES     MOSUNNY   63  31  30 N18       29.99S
IOWA CITY      MOSUNNY   60  35  39 N13G26    29.92S
FORT DODGE     SUNNY     61  36  39 NW12G25   30.02S
MARSHALLTOWN   SUNNY     60  34  37 NW17G29   29.95F
CEDAR RAPIDS   MOSUNNY   60  37  42 N18G35    29.90F
$$

...NORTHERN ILLINOIS...


CITY           SKY/WX    TMP DP  RH WIND       PRES   REMARKS
CHICAGO-OHARE  CLOUDY    48  36  63 N17       29.78S
CHICAGO-MIDWAY CLOUDY    50  36  58 NW16      29.78S
MOLINE         PTSUNNY   59  36  42 NW13G25   29.86R
ROCKFORD       CLOUDY    53  38  56 N20G26    29.83F
PEORIA         PTSUNNY   58  37  45 N14G24    29.84R
$$

NOTE: "FAIR" INDICATES FEW OR NO CLOUDS BELOW 12,000 FEET WITH NO
SIGNIFICANT WEATHER AND/OR OBSTRUCTIONS TO VISIBILITY. WIND
SPEEDS ARE IN MILES-PER-HOUR.




USA.gov is the U.S. government's official web portal to all federal, state and local government web resources and services.